Charleston, SC

2:05 AM EDT on March 25, 2017 (GMT -0400)
Charleston Executive

Weather History for KJZI - December, 2012

Change the Weather History Date:

Saturday, December 22, 2012

  Actual Average (KCHS) Record (KCHS)
Temperature  
Mean Temperature 46 °F -  
Max Temperature 57 °F 60 °F 81 °F (2013)
Min Temperature 35 °F 40 °F 19 °F (1989)
Degree Days  
Heating Degree Days 19    
Moisture  
Dew Point 21 °F    
Average Humidity 43    
Maximum Humidity 81    
Minimum Humidity 18    
Precipitation  
Precipitation 0.00 in - - ()
Sea Level Pressure  
Sea Level Pressure 30.13 in    
Wind  
Wind Speed 12 mph (West)    
Max Wind Speed 21 mph    
Max Gust Speed 26 mph    
Visibility 10 miles    
Events      
Averages and records for this station are not official NWS values.
T = Trace of Precipitation, MM = Missing Value Source: NWS Daily Summary

Daily Weather History Graph

Daily Weather History Graph

Search for Another Location

Airport or City:

Trip Planner

Search our weather history database for the weather conditions in past years. The results will help you decide how hot, cold, wet, or windy it might be!

Date:

Astronomy

Dec. 22, 2012 Rise Set
Actual Time 7:18 AM EST 5:18 PM EST
Civil Twilight 6:51 AM EST 5:46 PM EST
Nautical Twilight 6:20 AM EST 6:16 PM EST
Astronomical Twilight 5:50 AM EST 6:47 PM EST
Moon 1:26 PM EST (12/22) 2:12 AM EST (12/22)
Length of Visible Light 10h 54m
Length of Day
9h 59m
Waxing Gibbous, 73% of the Moon is Illuminated
Dec 22
Waxing Gibbous
Dec 28
Full
Jan 4
Last Quarter
Jan 11
New
Jan 18
First Quarter

Hourly Weather History & Observations

Time (EST) Temp. Windchill Dew Point Humidity Pressure Visibility Wind Dir Wind Speed Gust Speed Precip Events Conditions
12:15 AM 42.8 °F 34.8 °F 19.4 °F 39% 30.00 in 10.0 mi West 17.3 mph 23.0 mph 0.00 in   Clear
12:35 AM 42.8 °F 34.5 °F 19.4 °F 39% 30.00 in 10.0 mi West 18.4 mph 23.0 mph 0.00 in   Clear
12:55 AM 42.8 °F 35.8 °F 19.4 °F 39% 29.99 in 10.0 mi West 13.8 mph 20.7 mph 0.00 in   Clear
1:15 AM 42.8 °F 35.1 °F 19.4 °F 39% 30.00 in 10.0 mi West 16.1 mph 24.2 mph 0.00 in   Clear
1:35 AM 42.8 °F 34.8 °F 19.4 °F 39% 30.01 in 10.0 mi West 17.3 mph 25.3 mph 0.00 in   Clear
1:55 AM 42.8 °F 34.0 °F 19.4 °F 39% 30.01 in 10.0 mi West 20.7 mph 26.5 mph 0.00 in   Clear
2:15 AM 41.0 °F 31.6 °F 19.4 °F 42% 30.01 in 10.0 mi West 20.7 mph 26.5 mph 0.00 in   Clear
2:35 AM 41.0 °F 33.1 °F 19.4 °F 42% 30.02 in 10.0 mi WNW 15.0 mph 24.2 mph 0.00 in   Clear
2:55 AM 41.0 °F 32.5 °F 17.6 °F 39% 30.02 in 10.0 mi West 17.3 mph 23.0 mph 0.00 in   Clear
3:15 AM 39.2 °F 30.5 °F 19.4 °F 45% 30.03 in 10.0 mi West 16.1 mph 25.3 mph 0.00 in   Clear
3:35 AM 39.2 °F 30.8 °F 17.6 °F 42% 30.04 in 10.0 mi WNW 15.0 mph 23.0 mph 0.00 in   Clear
3:55 AM 39.2 °F 31.6 °F 19.4 °F 45% 30.04 in 10.0 mi West 12.7 mph 19.6 mph 0.00 in   Clear
4:15 AM 39.2 °F 30.5 °F 19.4 °F 45% 30.05 in 10.0 mi West 16.1 mph 21.9 mph 0.00 in   Clear
4:35 AM 39.2 °F 31.2 °F 19.4 °F 45% 30.05 in 10.0 mi West 13.8 mph - 0.00 in   Clear
5:15 AM 37.4 °F 30.3 °F 19.4 °F 48% 30.07 in 10.0 mi West 10.4 mph - 0.00 in   Clear
5:35 AM 37.4 °F 29.8 °F 19.4 °F 48% 30.08 in 10.0 mi West 11.5 mph - 0.00 in   Clear
5:55 AM 37.4 °F 28.9 °F 19.4 °F 48% 30.08 in 10.0 mi West 13.8 mph 17.3 mph 0.00 in   Clear
6:15 AM 37.4 °F 28.5 °F 19.4 °F 48% 30.09 in 10.0 mi West 15.0 mph 21.9 mph 0.00 in   Clear
6:55 AM 37.4 °F 29.8 °F 19.4 °F 48% 30.12 in 10.0 mi West 11.5 mph - 0.00 in   Clear
7:15 AM 35.6 °F 28.0 °F 19.4 °F 52% 30.13 in 10.0 mi West 10.4 mph - 0.00 in   Clear
7:35 AM 35.6 °F 28.6 °F 19.4 °F 52% 30.14 in 10.0 mi West 9.2 mph - 0.00 in   Clear
7:55 AM 37.4 °F 30.3 °F 19.4 °F 48% 30.15 in 10.0 mi West 10.4 mph - 0.00 in   Clear
8:15 AM 37.4 °F 30.3 °F 19.4 °F 48% 30.16 in 10.0 mi West 10.4 mph - 0.00 in   Clear
8:35 AM 39.2 °F 31.6 °F 17.6 °F 42% 30.16 in 10.0 mi West 12.7 mph 17.3 mph 0.00 in   Clear
8:55 AM 41.0 °F 33.9 °F 17.6 °F 39% 30.18 in 10.0 mi WNW 12.7 mph 18.4 mph 0.00 in   Clear
9:15 AM 42.8 °F 37.5 °F 17.6 °F 36% 30.18 in 10.0 mi WNW 9.2 mph 16.1 mph 0.00 in   Clear
9:35 AM 44.6 °F 39.2 °F 17.6 °F 34% 30.19 in 10.0 mi WNW 10.4 mph - 0.00 in   Clear
9:55 AM 46.4 °F 42.4 °F 19.4 °F 34% 30.19 in 10.0 mi West 8.1 mph - 0.00 in   Clear
10:15 AM 46.4 °F 42.4 °F 17.6 °F 32% 30.19 in 10.0 mi WNW 8.1 mph - 0.00 in   Clear
10:35 AM 48.2 °F - 17.6 °F 30% 30.18 in 7.0 mi WNW 8.1 mph - 0.00 in   Clear
10:55 AM 48.2 °F - 17.6 °F 30% 30.19 in 10.0 mi West 11.5 mph - 0.00 in   Clear
11:15 AM 48.2 °F - 19.4 °F 32% 30.18 in 10.0 mi West 10.4 mph - 0.00 in   Clear
11:35 AM 50.0 °F - 17.6 °F 28% 30.18 in 10.0 mi West 6.9 mph - 0.00 in   Clear
11:55 AM 51.8 °F - 17.6 °F 26% 30.17 in 10.0 mi West 9.2 mph - 0.00 in   Clear
12:15 PM 51.8 °F - 17.6 °F 26% 30.17 in 10.0 mi NW 10.4 mph 17.3 mph 0.00 in   Clear
12:35 PM 53.6 °F - 15.8 °F 22% 30.16 in 10.0 mi WNW 13.8 mph - 0.00 in   Clear
12:55 PM 53.6 °F - 14.0 °F 21% 30.15 in 10.0 mi WNW 10.4 mph - 0.00 in   Clear
1:15 PM 55.4 °F - 17.6 °F 23% 30.14 in 10.0 mi NW 9.2 mph - 0.00 in   Clear
1:35 PM 55.4 °F - 14.0 °F 20% 30.13 in 10.0 mi NW 8.1 mph 17.3 mph 0.00 in   Clear
1:55 PM 57.2 °F - 14.0 °F 18% 30.12 in 10.0 mi WNW 10.4 mph - 0.00 in   Clear
2:15 PM 57.2 °F - 14.0 °F 18% 30.11 in 10.0 mi NW 6.9 mph - 0.00 in   Clear
2:35 PM 57.2 °F - 14.0 °F 18% 30.12 in 10.0 mi West 9.2 mph - 0.00 in   Clear
2:55 PM 57.2 °F - 17.6 °F 21% 30.12 in 10.0 mi WSW 9.2 mph - 0.00 in   Clear
3:15 PM 57.2 °F - 17.6 °F 21% 30.12 in 10.0 mi WSW 6.9 mph - 0.00 in   Clear
3:35 PM 57.2 °F - 17.6 °F 21% 30.12 in 10.0 mi West 6.9 mph - 0.00 in   Clear
3:55 PM 57.2 °F - 17.6 °F 21% 30.13 in 10.0 mi WSW 8.1 mph - 0.00 in   Clear
4:15 PM 57.2 °F - 19.4 °F 23% 30.13 in 10.0 mi WSW 6.9 mph - 0.00 in   Clear
4:35 PM 55.4 °F - 19.4 °F 25% 30.14 in 10.0 mi Calm Calm - 0.00 in   Clear
4:55 PM 55.4 °F - 19.4 °F 25% 30.14 in 10.0 mi West 5.8 mph - 0.00 in   Clear
5:15 PM 53.6 °F - 21.2 °F 28% 30.15 in 10.0 mi Calm Calm - 0.00 in   Clear
5:35 PM 50.0 °F - 24.8 °F 37% 30.15 in 10.0 mi West 3.5 mph - 0.00 in   Clear
5:55 PM 46.4 °F - 28.4 °F 50% 30.16 in 10.0 mi Calm Calm - 0.00 in   Clear
6:15 PM 44.6 °F - 30.2 °F 57% 30.16 in 10.0 mi Calm Calm - 0.00 in   Clear
6:55 PM 41.0 °F - 30.2 °F 65% 30.17 in 10.0 mi Calm Calm - 0.00 in   Clear
7:15 PM 41.0 °F 38.0 °F 32.0 °F 70% 30.18 in 10.0 mi WSW 4.6 mph - 0.00 in   Clear
7:35 PM 42.8 °F 41.1 °F 28.4 °F 57% 30.18 in 10.0 mi WSW 3.5 mph - 0.00 in   Clear
7:55 PM 44.6 °F - 26.6 °F 49% 30.18 in 10.0 mi Calm Calm - 0.00 in   Clear
8:15 PM 41.0 °F - 30.2 °F 65% 30.18 in 10.0 mi Calm Calm - 0.00 in   Clear
8:35 PM 39.2 °F - 30.2 °F 70% 30.19 in 10.0 mi Calm Calm - 0.00 in   Clear
9:15 PM 37.4 °F - 30.2 °F 75% 30.19 in 10.0 mi Calm Calm - 0.00 in   Clear
9:35 PM 37.4 °F - 30.2 °F 75% 30.19 in 10.0 mi Calm Calm - 0.00 in   Clear
9:55 PM 39.2 °F - 30.2 °F 70% 30.19 in 10.0 mi Calm Calm - 0.00 in   Clear
10:15 PM 37.4 °F - 30.2 °F 75% 30.19 in 10.0 mi Calm Calm - 0.00 in   Clear
10:35 PM 37.4 °F - 30.2 °F 75% 30.19 in 10.0 mi Calm Calm - 0.00 in   Clear
10:55 PM 37.4 °F - 30.2 °F 75% 30.19 in 10.0 mi Calm Calm - 0.00 in   Clear
11:15 PM 35.6 °F - 30.2 °F 81% 30.19 in 10.0 mi Calm Calm - 0.00 in   Clear
11:35 PM 35.6 °F - 30.2 °F 81% 30.19 in 10.0 mi Calm Calm - 0.00 in   Clear
11:55 PM 37.4 °F - 28.4 °F 70% 30.18 in 10.0 mi Calm Calm - 0.00 in   Clear